Weather History for KFMN - January, 2013

Change the Weather History Date:

Sunday, January 6, 2013

  Actual Average Record
Temperature  
Mean Temperature 21 °F -  
Max Temperature 39 °F 41 °F 54 °F (1987)
Min Temperature 3 °F 20 °F 3 °F (2000)
Degree Days  
Heating Degree Days 44    
Moisture  
Dew Point 9 °F    
Average Humidity 58    
Maximum Humidity 84    
Minimum Humidity 21    
Precipitation  
Precipitation 0.00 in - - ()
Sea Level Pressure  
Sea Level Pressure 30.38 in    
Wind  
Wind Speed 7 mph (ESE)    
Max Wind Speed 10 mph    
Max Gust Speed -    
Visibility 10 miles    
Events      
Averages and records for this station are not official NWS values.
T = Trace of Precipitation, MM = Missing Value Source: NWS Daily Summary

Daily Weather History Graph

Daily Weather History Graph

Search for Another Location

Airport or City:

Trip Planner

Search our weather history database for the weather conditions in past years. The results will help you decide how hot, cold, wet, or windy it might be!

Date:

Astronomy

Jan. 06, 2013 Rise Set
Actual Time 7:25 AM MST 5:12 PM MST
Civil Twilight 6:57 AM MST 5:40 PM MST
Nautical Twilight 6:25 AM MST 6:12 PM MST
Astronomical Twilight 5:53 AM MST 6:44 PM MST
Moon 1:47 AM MST (1/6) 12:38 PM MST (1/6)
Length of Visible Light 10h 43m
Length of Day
9h 46m
Waning Crescent, 32% of the Moon is Illuminated
Jan 6
Waning Crescent
Jan 11
New
Jan 18
First Quarter
Jan 26
Full
Feb 3
Last Quarter

Hourly Weather History & Observations

Time (MST) Temp. Windchill Dew Point Humidity Pressure Visibility Wind Dir Wind Speed Gust Speed Precip Events Conditions
12:53 AM 8.1 °F -4.3 °F 3.0 °F 80% 30.56 in 10.0 mi East 8.1 mph - N/A   Clear
2:53 AM 7.0 °F -6.6 °F 1.9 °F 80% 30.54 in 10.0 mi East 9.2 mph - N/A   Clear
3:53 AM 6.1 °F -8.7 °F 1.0 °F 80% 30.53 in 10.0 mi ESE 10.4 mph - N/A   Clear
5:53 AM 5.0 °F -8.1 °F 1.0 °F 84% 30.55 in 10.0 mi ESE 8.1 mph - N/A   Clear
6:53 AM 5.0 °F -8.1 °F -0.0 °F 80% 30.58 in 10.0 mi ESE 8.1 mph - N/A   Clear
7:53 AM 5.0 °F -8.1 °F -0.0 °F 80% 30.59 in 10.0 mi ESE 8.1 mph - N/A   Clear
8:53 AM 8.1 °F -4.3 °F 1.9 °F 76% 30.58 in 10.0 mi East 8.1 mph - N/A   Clear
9:53 AM 15.1 °F 4.2 °F 6.1 °F 68% 30.55 in 10.0 mi ESE 8.1 mph - N/A   Clear
10:53 AM 23.0 °F 14.7 °F 10.0 °F 58% 30.47 in 10.0 mi SE 6.9 mph - N/A   Clear
11:53 AM 28.0 °F 24.2 °F 10.0 °F 47% 30.40 in 10.0 mi East 3.5 mph - N/A   Clear
12:53 PM 32.0 °F 24.8 °F 10.0 °F 40% 30.34 in 10.0 mi ESE 8.1 mph - N/A   Clear
1:53 PM 37.0 °F 32.4 °F 12.0 °F 36% 30.28 in 10.0 mi SE 5.8 mph - N/A   Clear
2:53 PM 39.0 °F 34.0 °F 10.9 °F 32% 30.25 in 10.0 mi East 6.9 mph - N/A   Clear
3:53 PM 37.9 °F 35.5 °F 12.0 °F 35% 30.25 in 10.0 mi East 3.5 mph - N/A   Clear
4:53 PM 37.0 °F - 10.9 °F 34% 30.24 in 10.0 mi Calm Calm - N/A   Clear
5:53 PM 33.1 °F 30.0 °F 14.0 °F 46% 30.25 in 10.0 mi SE 3.5 mph - N/A   Clear
6:53 PM 28.9 °F - 15.1 °F 56% 30.26 in 10.0 mi Calm Calm - N/A   Clear
7:53 PM 27.0 °F - 16.0 °F 63% 30.27 in 10.0 mi Calm Calm - N/A   Mostly Cloudy
8:53 PM 26.1 °F 21.9 °F 16.0 °F 66% 30.25 in 10.0 mi East 3.5 mph - N/A   Clear
9:53 PM 26.1 °F 17.6 °F 15.1 °F 63% 30.21 in 10.0 mi East 8.1 mph - N/A   Clear
10:53 PM 25.0 °F 20.7 °F 15.1 °F 66% 30.18 in 10.0 mi East 3.5 mph - N/A   Clear
11:53 PM 25.0 °F 15.5 °F 14.0 °F 63% 30.14 in 10.0 mi East 9.2 mph - N/A   Clear